CW4517 Weather Reports


time (UTC)temp
F
wind
direction
speed
knots
gust
knots
rain 1hr
in
rain 24hr
in
rain mn
in
humidity
%
barometer
mb
20260503231155 66 216 6.1 13.0 0.00 0.00 0.00 53 1003.3
20260503230645 65 211 6.1 11.3 0.00 0.00 0.00 53 1003.3
20260503230143 65 241 6.1 13.0 0.00 0.00 0.00 53 1003.4
20260503230122 64 181 7.0 13.0 0.00 0.00 0.00 53 1003.4
20260503225132 65 227 6.1 12.2 0.00 0.00 0.00 53 1003.4
20260503225113 65 231 6.1 12.2 0.00 0.00 0.00 54 1003.5
20260503224119 64 227 6.1 11.3 0.00 0.00 0.00 53 1003.5
20260503223614 64 196 6.1 13.0 0.00 0.00 0.00 54 1003.5
20260503223337 64 241 6.1 13.0 0.00 0.00 0.00 53 1003.8
20260503222615 64 217 5.2 11.3 0.00 0.00 0.00 54 1003.8
20260503222114 64 167 5.2 12.2 0.00 0.00 0.00 54 1003.8
20260503221834 64 199 6.1 12.2 0.00 0.00 0.00 54 1003.9
20260503221114 64 173 6.1 12.2 0.00 0.00 0.00 54 1003.9
20260503220614 64 188 6.1 11.3 0.00 0.00 0.00 53 1003.9
20260503220333 64 191 6.1 13.0 0.00 0.00 0.00 53 1003.9
20260503215614 64 172 6.1 13.0 0.00 0.00 0.00 52 1003.9
20260503215114 64 188 7.0 16.5 0.00 0.00 0.00 53 1003.9
20260503214614 64 235 7.8 17.4 0.00 0.00 0.00 52 1004.0
20260503214111 64 184 7.8 17.4 0.00 0.00 0.00 52 1004.0
20260503213610 64 239 8.7 21.7 0.00 0.00 0.00 50 1004.0
20260503213110 64 281 9.6 21.7 0.00 0.00 0.00 49 1004.4
20260503212611 64 223 8.7 20.0 0.00 0.00 0.00 50 1004.4
20260503212110 63 209 7.8 16.5 0.00 0.00 0.00 51 1004.4
20260503211610 63 188 8.7 16.5 0.00 0.00 0.00 53 1004.8
20260503211110 63 243 8.7 17.4 0.00 0.00 0.00 51 1004.8
20260503210604 62 255 7.8 17.4 0.00 0.00 0.00 51 1004.8
20260503210056 62 239 7.8 18.2 0.00 0.00 0.00 51 1005.0
20260503205549 62 201 8.7 18.2 0.00 0.00 0.00 50 1005.0
20260503205043 62 234 9.6 19.1 0.00 0.00 0.00 50 1005.0
20260503204537 62 213 8.7 19.1 0.00 0.00 0.00 49 1005.1
20260503204028 62 242 8.7 15.6 0.00 0.00 0.00 51 1005.1
20260503203525 62 293 8.7 14.8 0.00 0.00 0.00 51 1005.1
20260503203020 62 224 8.7 18.2 0.00 0.00 0.00 50 1005.5
20260503202736 63 215 10.4 22.6 0.00 0.00 0.00 50 1005.5
20260503202230 63 242 10.4 22.6 0.00 0.00 0.00 49 1005.5
20260503201502 63 128 9.6 18.2 0.00 0.00 0.00 51 1005.4
20260503201000 63 181 9.6 19.1 0.00 0.00 0.00 51 1005.4
20260503200503 63 186 10.4 19.1 0.00 0.00 0.00 49 1005.4
20260503195959 64 204 10.4 20.0 0.00 0.00 0.00 48 1005.5
20260503195501 64 217 8.7 20.0 0.00 0.00 0.00 47 1005.5
20260503195000 64 216 7.0 17.4 0.00 0.00 0.00 52 1005.5
20260503194502 63 180 7.8 17.4 0.00 0.00 0.00 52 1005.9
20260503193959 63 187 9.6 22.6 0.00 0.00 0.00 50 1005.9
20260503193513 63 172 9.6 22.6 0.00 0.00 0.00 49 1005.9
20260503193004 63 229 8.7 21.7 0.00 0.00 0.00 51 1006.0
20260503192456 62 219 10.4 21.7 0.00 0.00 0.00 53 1006.0
20260503191941 62 202 8.7 19.1 0.00 0.00 0.00 52 1006.5
20260503191429 62 200 7.8 20.9 0.00 0.00 0.00 55 1006.5
20260503190918 61 192 9.6 20.9 0.00 0.00 0.00 55 1006.5
20260503190407 61 234 8.7 20.0 0.00 0.00 0.00 54 1006.6
20260503185905 61 149 6.1 14.8 0.00 0.00 0.00 56 1006.6
20260503185400 60 227 5.2 13.9 0.00 0.00 0.00 60 1006.6
20260503184854 59 233 4.3 10.4 0.00 0.00 0.00 62 1007.1
20260503184348 58 117 4.3 11.3 0.00 0.00 0.00 65 1007.1
20260503183838 56 155 5.2 11.3 0.00 0.00 0.00 67 1007.1
20260503183559 56 121 4.3 11.3 0.00 0.00 0.00 68 1007.3
20260503182831 55 140 3.5 7.8 0.00 0.00 0.00 72 1007.3
20260503182325 53 129 4.3 9.6 0.00 0.00 0.00 74 1007.3
20260503182041 52 113 3.5 9.6 0.00 0.00 0.00 74 1008.0
20260503181311 51 144 2.6 7.0 0.00 0.00 0.00 75 1008.0
20260503180805 51 112 2.6 7.0 0.00 0.00 0.00 75 1008.0
20260503180259 51 115 2.6 7.0 0.00 0.00 0.00 73 1008.8
20260503175753 51 154 1.7 6.1 0.00 0.00 0.00 73 1008.8
20260503175249 51 184 2.6 7.8 0.00 0.00 0.00 73 1008.8
20260503174738 51 162 3.5 13.0 0.00 0.00 0.00 73 1009.7
20260503174236 50 198 4.3 13.0 0.00 0.00 0.00 73 1009.7
20260503173726 50 0 2.6 12.2 0.00 0.00 0.00 75 1009.7
20260503173224 50 213 3.5 6.1 0.00 0.00 0.00 76 1009.7
20260503172718 50 189 2.6 7.0 0.00 0.00 0.00 76 1009.7
20260503172439 50 219 2.6 7.8 0.00 0.00 0.00 78 1009.7
20260503171706 50 165 3.5 7.8 0.00 0.00 0.00 78 1009.9
20260503171200 50 246 3.5 7.0 0.00 0.00 0.00 78 1009.9
20260503170914 50 140 2.6 6.1 0.00 0.00 0.00 78 1009.9
20260503170151 49 180 2.6 7.0 0.00 0.00 0.00 79 1010.4
20260503160143 49 207 5.2 11.3 0.00 0.00 0.00 78 1011.4
20260503150642 53 229 7.8 18.2 0.00 0.00 0.00 63 1010.8
20260503150145 53 225 7.0 13.9 0.00 0.00 0.00 63 1010.5
20260503130938 48 233 5.2 12.2 0.00 0.00 0.00 69 1011.4
20260503130431 48 234 5.2 15.6 0.00 0.00 0.00 69 1011.5
20260503110707 43 226 6.1 11.3 0.00 0.00 0.00 69 1011.2
20260503110208 43 210 5.2 9.6 0.00 0.00 0.00 70 1011.3
20260503100126 43 225 4.3 7.8 0.00 0.00 0.00 70 1011.4
20260503081415 42 220 4.3 9.6 0.00 0.00 0.00 69 1011.8
20260503080910 42 227 5.2 9.6 0.00 0.00 0.00 68 1011.8
20260503080628 42 240 5.2 7.8 0.00 0.00 0.00 68 1011.7
20260503072857 43 217 4.3 8.7 0.00 0.00 0.00 67 1011.8
20260503072357 43 242 4.3 7.8 0.00 0.00 0.00 67 1011.8
20260503071856 43 221 4.3 7.8 0.00 0.00 0.00 67 1011.9
20260503071359 43 245 4.3 7.8 0.00 0.00 0.00 67 1011.9
20260503070901 43 259 5.2 8.7 0.00 0.00 0.00 67 1011.9
20260503070843 43 221 5.2 9.6 0.00 0.00 0.00 67 1012.0
20260503060217 43 234 3.5 6.1 0.00 0.00 0.00 67 1012.5
20260503054655 43 215 2.6 5.2 0.00 0.00 0.00 67 1012.6
20260503054153 43 209 2.6 5.2 0.00 0.00 0.00 67 1012.6
20260503053646 43 230 2.6 6.1 0.00 0.00 0.00 67 1012.6
20260503053136 43 223 2.6 6.1 0.00 0.00 0.00 67 1012.8
20260503052855 43 216 2.6 4.3 0.00 0.00 0.00 68 1012.8
20260503052125 43 215 2.6 4.3 0.00 0.00 0.00 68 1012.8
20260503051623 43 222 2.6 4.3 0.00 0.00 0.00 68 1012.9
20260503051122 43 246 2.6 4.3 0.00 0.00 0.00 69 1012.9
20260503050622 43 219 1.7 4.3 0.00 0.00 0.00 69 1012.9
20260503050122 43 217 1.7 3.5 0.00 0.00 0.00 69 1012.9
20260503045621 43 221 1.7 3.5 0.00 0.00 0.00 69 1012.9
20260503045118 43 228 1.7 4.3 0.00 0.00 0.00 69 1012.9
20260503044616 43 211 1.7 4.3 0.00 0.00 0.00 69 1012.9
20260503044116 43 209 1.7 3.5 0.00 0.00 0.00 69 1012.9
20260503043616 43 213 1.7 2.6 0.00 0.00 0.00 68 1012.9
20260503043114 44 213 1.7 3.5 0.00 0.00 0.00 68 1012.9
20260503042614 44 211 1.7 3.5 0.00 0.00 0.00 68 1012.9
20260503042114 44 204 1.7 3.5 0.00 0.00 0.00 67 1012.9
20260503041615 44 205 1.7 4.3 0.00 0.00 0.00 67 1012.9
20260503041332 44 183 1.7 4.3 0.00 0.00 0.00 67 1012.9
20260503040614 44 182 1.7 3.5 0.00 0.00 0.00 67 1012.9
20260503040114 44 217 1.7 3.5 0.00 0.00 0.00 67 1013.0
20260503035612 44 217 1.7 3.5 0.00 0.00 0.00 66 1013.0
20260503035110 45 211 1.7 4.3 0.00 0.00 0.00 66 1013.0
20260503034610 45 219 1.7 4.3 0.00 0.00 0.00 66 1013.0
20260503034108 45 218 1.7 3.5 0.00 0.00 0.00 66 1013.0
20260503033602 45 214 1.7 4.3 0.00 0.00 0.00 66 1013.0
20260503033056 45 215 1.7 4.3 0.00 0.00 0.00 65 1013.0
20260503032551 45 219 1.7 4.3 0.00 0.00 0.00 65 1013.0
20260503032044 45 190 1.7 4.3 0.00 0.00 0.00 65 1013.0
20260503031538 46 221 1.7 3.5 0.00 0.00 0.00 65 1013.2
20260503031033 46 199 1.7 3.5 0.00 0.00 0.00 65 1013.2
20260503030526 46 209 1.7 3.5 0.00 0.00 0.00 64 1013.2
20260503030239 46 212 1.7 3.5 0.00 0.00 0.00 64 1013.2
20260503025514 46 211 1.7 2.6 0.00 0.00 0.00 63 1013.2
20260503025009 47 204 1.7 3.5 0.00 0.00 0.00 63 1013.2
20260503024720 47 222 1.7 4.3 0.00 0.00 0.00 62 1013.1
20260503023956 47 211 1.7 4.3 0.00 0.00 0.00 62 1013.1
20260503023449 47 201 1.7 3.5 0.00 0.00 0.00 62 1013.2
20260503022943 47 207 1.7 3.5 0.00 0.00 0.00 61 1013.2
20260503022439 47 221 1.7 2.6 0.00 0.00 0.00 61 1013.2
20260503021934 48 221 0.9 2.6 0.00 0.00 0.00 61 1013.2
20260503021427 48 221 1.7 2.6 0.00 0.00 0.00 59 1013.2
20260503020920 48 207 1.7 3.5 0.00 0.00 0.00 59 1013.2
20260503020420 48 200 0.9 3.5 0.00 0.00 0.00 59 1013.0
20260503015919 48 215 0.9 1.7 0.00 0.00 0.00 58 1013.0
20260503015420 49 215 0.0 1.7 0.00 0.00 0.00 57 1013.0
20260503014919 49 215 0.0 0.0 0.00 0.00 0.00 56 1012.9
20260503014419 49 215 0.0 2.6 0.00 0.00 0.00 55 1012.9
20260503013919 50 215 0.9 2.6 0.00 0.00 0.00 55 1012.9
20260503013420 50 215 0.9 2.6 0.00 0.00 0.00 54 1012.9
20260503012919 50 214 1.7 2.6 0.00 0.00 0.00 53 1012.9
20260503012420 51 213 0.9 2.6 0.00 0.00 0.00 53 1012.9
20260503011914 51 213 0.9 2.6 0.00 0.00 0.00 52 1012.9
20260503011624 51 213 1.7 3.5 0.00 0.00 0.00 51 1012.9
20260503010851 51 213 1.7 3.5 0.00 0.00 0.00 50 1012.9
20260503010347 52 223 0.9 2.6 0.00 0.00 0.00 49 1012.9
20260503005841 52 230 0.9 2.6 0.00 0.00 0.00 49 1012.9
20260503005333 53 230 1.7 4.3 0.00 0.00 0.00 47 1012.9
20260503004828 53 222 2.6 6.1 0.00 0.00 0.00 46 1012.9
20260503004322 53 232 2.6 6.1 0.00 0.00 0.00 45 1012.9
20260503003816 53 239 2.6 6.1 0.00 0.00 0.00 45 1012.9
20260503003305 54 222 2.6 6.1 0.00 0.00 0.00 44 1012.9
20260503002803 54 238 2.6 6.1 0.00 0.00 0.00 44 1012.9
20260503002258 54 240 2.6 6.1 0.00 0.00 0.00 43 1012.9
20260503001752 54 250 2.6 5.2 0.00 0.00 0.00 43 1012.9
20260503001246 55 234 2.6 7.8 0.00 0.00 0.00 42 1012.9
20260503000736 55 285 3.5 7.8 0.00 0.00 0.00 42 1012.9
20260503000233 55 216 2.6 7.8 0.00 0.00 0.00 44 1012.9
20260502235727 55 227 2.6 5.2 0.00 0.00 0.00 43 1012.9
20260502235221 54 229 1.7 4.3 0.00 0.00 0.00 43 1012.9
20260502234715 54 237 2.6 6.1 0.00 0.00 0.00 43 1013.0
20260502234206 55 257 1.7 6.1 0.00 0.00 0.00 42 1013.0
20260502233703 55 233 0.9 3.5 0.00 0.00 0.00 44 1013.0
20260502233201 55 268 1.7 4.3 0.00 0.00 0.00 45 1013.1
20260502232912 54 271 2.6 7.0 0.00 0.00 0.00 44 1013.1
20260502232147 54 225 3.5 7.0 0.00 0.00 0.00 43 1013.1